| time (UTC) | temp F | wind direction | speed MPH | gust MPH | rain 1hr in | rain 24hr in | rain mn in | humidity % | barometer mb |
| 20260902215236 | 97 | 32 | 3.0 | 4.0 | 0.00 | 0.00 | 0.00 | 37 | 1011.5 |
| 20260902214236 | 97 | 43 | 9.0 | 12.0 | 0.00 | 0.00 | 0.00 | 38 | 1011.5 |
| 20260902213254 | 97 | 34 | 7.0 | 9.0 | 0.00 | 0.00 | 0.00 | 38 | 1011.5 |
| 20260902210337 | 97 | 47 | 6.0 | 9.0 | 0.00 | 0.00 | 0.00 | 39 | 1011.9 |
| 20260902205339 | 97 | 64 | 9.0 | 13.0 | 0.00 | 0.00 | 0.00 | 37 | 1011.9 |
| 20260902203439 | 96 | 69 | 9.0 | 12.0 | 0.00 | 0.00 | 0.00 | 38 | 1012.2 |
| 20260902202453 | 96 | 61 | 7.0 | 10.0 | 0.00 | 0.00 | 0.00 | 40 | 1012.3 |
| 20260902201539 | 96 | 129 | 3.0 | 9.0 | 0.00 | 0.00 | 0.00 | 39 | 1012.4 |
| 20260902200636 | 96 | 18 | 7.0 | 11.0 | 0.00 | 0.00 | 0.00 | 39 | 1012.5 |
| 20260902195637 | 96 | 67 | 4.0 | 6.0 | 0.00 | 0.00 | 0.00 | 40 | 1012.6 |
| 20260902194637 | 96 | 63 | 3.0 | 5.0 | 0.00 | 0.00 | 0.00 | 40 | 1012.8 |
| 20260902193637 | 95 | 38 | 6.0 | 9.0 | 0.00 | 0.00 | 0.00 | 41 | 1013.1 |
| 20260902192735 | 95 | 88 | 8.0 | 13.0 | 0.00 | 0.00 | 0.00 | 40 | 1013.2 |
| 20260902191754 | 95 | 97 | 2.0 | 4.0 | 0.00 | 0.00 | 0.00 | 41 | 1013.5 |
| 20260902190738 | 95 | 34 | 11.0 | 14.0 | 0.00 | 0.00 | 0.00 | 42 | 1013.5 |
| 20260902185755 | 95 | 64 | 7.0 | 11.0 | 0.00 | 0.00 | 0.00 | 41 | 1013.7 |
| 20260902184838 | 95 | 346 | 6.0 | 9.0 | 0.00 | 0.00 | 0.00 | 41 | 1013.8 |
| 20260902183838 | 95 | 346 | 3.0 | 7.0 | 0.00 | 0.00 | 0.00 | 41 | 1014.1 |
| 20260902182837 | 95 | 37 | 5.0 | 8.0 | 0.00 | 0.00 | 0.00 | 41 | 1014.2 |
| 20260902181936 | 95 | 66 | 7.0 | 9.0 | 0.00 | 0.00 | 0.00 | 41 | 1014.4 |
| 20260902180036 | 95 | 63 | 5.0 | 8.0 | 0.00 | 0.00 | 0.00 | 41 | 1014.6 |
| 20260902175037 | 95 | 89 | 2.0 | 5.0 | 0.00 | 0.00 | 0.00 | 42 | 1014.8 |
| 20260902174036 | 94 | 97 | 5.0 | 9.0 | 0.00 | 0.00 | 0.00 | 42 | 1015.1 |
| 20260902173038 | 93 | 281 | 1.0 | 4.0 | 0.00 | 0.00 | 0.00 | 44 | 1015.2 |
| 20260902172038 | 93 | 33 | 8.0 | 9.0 | 0.00 | 0.00 | 0.00 | 44 | 1015.4 |
| 20260902171137 | 94 | 58 | 4.0 | 5.0 | 0.00 | 0.00 | 0.00 | 44 | 1015.4 |
| 20260902170138 | 94 | 15 | 0.0 | 3.0 | 0.00 | 0.00 | 0.00 | 44 | 1015.5 |
| 20260902165136 | 93 | 130 | 2.0 | 4.0 | 0.00 | 0.00 | 0.00 | 43 | 1015.7 |
| 20260902164153 | 93 | 35 | 4.0 | 6.0 | 0.00 | 0.00 | 0.00 | 44 | 1015.8 |
| 20260902163153 | 93 | 35 | 2.0 | 5.0 | 0.00 | 0.00 | 0.00 | 46 | 1015.7 |
| 20260902161239 | 93 | 133 | 1.0 | 6.0 | 0.00 | 0.00 | 0.00 | 45 | 1015.8 |
| 20260902160337 | 91 | 115 | 2.0 | 4.0 | 0.00 | 0.00 | 0.00 | 49 | 1016.0 |
| 20260902154435 | 90 | 93 | 1.0 | 3.0 | 0.00 | 0.00 | 0.00 | 51 | 1015.8 |
| 20260902153437 | 89 | 112 | 0.0 | 0.0 | 0.00 | 0.00 | 0.00 | 52 | 1016.0 |
| 20260902152436 | 89 | 67 | 4.0 | 4.0 | 0.00 | 0.00 | 0.00 | 54 | 1015.9 |
| 20260902151453 | 88 | 90 | 4.0 | 5.0 | 0.00 | 0.00 | 0.00 | 55 | 1015.8 |
| 20260902150552 | 89 | 80 | 2.0 | 5.0 | 0.00 | 0.00 | 0.00 | 55 | 1016.0 |
| 20260902145538 | 88 | 132 | 1.0 | 4.0 | 0.00 | 0.00 | 0.00 | 56 | 1016.0 |
| 20260902143537 | 85 | 118 | 3.0 | 7.0 | 0.00 | 0.00 | 0.00 | 60 | 1016.0 |
| 20260902142537 | 85 | 98 | 4.0 | 8.0 | 0.00 | 0.00 | 0.00 | 62 | 1016.1 |
| 20260902141635 | 84 | 138 | 5.0 | 7.0 | 0.00 | 0.00 | 0.00 | 62 | 1016.1 |
| 20260902135635 | 83 | 67 | 3.0 | 4.0 | 0.00 | 0.00 | 0.00 | 65 | 1016.1 |
| 20260902133638 | 82 | 45 | 2.0 | 4.0 | 0.00 | 0.00 | 0.00 | 69 | 1015.9 |
| 20260902131637 | 80 | 45 | 0.0 | 0.0 | 0.00 | 0.00 | 0.00 | 71 | 1015.8 |
| 20260902125638 | 78 | 90 | 0.0 | 0.0 | 0.00 | 0.00 | 0.00 | 76 | 1015.6 |
| 20260902124636 | 76 | 90 | 0.0 | 0.0 | 0.00 | 0.00 | 0.00 | 78 | 1015.6 |
| 20260902123637 | 76 | 90 | 0.0 | 0.0 | 0.00 | 0.00 | 0.00 | 80 | 1015.5 |
| 20260902122737 | 75 | 90 | 0.0 | 0.0 | 0.00 | 0.00 | 0.00 | 80 | 1015.5 |
| 20260902121736 | 75 | 90 | 0.0 | 0.0 | 0.00 | 0.00 | 0.00 | 80 | 1015.4 |
| 20260902120737 | 75 | 90 | 0.0 | 0.0 | 0.00 | 0.00 | 0.00 | 80 | 1015.3 |
| 20260902114737 | 76 | 90 | 0.0 | 0.0 | 0.00 | 0.00 | 0.00 | 78 | 1015.4 |
| 20260902112735 | 75 | 112 | 2.0 | 2.0 | 0.00 | 0.00 | 0.00 | 79 | 1015.5 |
| 20260902111737 | 76 | 157 | 0.0 | 0.0 | 0.00 | 0.00 | 0.00 | 78 | 1015.4 |
| 20260902110737 | 76 | 157 | 0.0 | 0.0 | 0.00 | 0.00 | 0.00 | 78 | 1015.4 |
| 20260902105737 | 76 | 157 | 0.0 | 0.0 | 0.00 | 0.00 | 0.00 | 78 | 1015.3 |
| 20260902104737 | 76 | 157 | 0.0 | 0.0 | 0.00 | 0.00 | 0.00 | 77 | 1015.4 |
| 20260902103737 | 77 | 157 | 0.0 | 0.0 | 0.00 | 0.00 | 0.00 | 76 | 1015.2 |
| 20260902101839 | 77 | 157 | 0.0 | 0.0 | 0.00 | 0.00 | 0.00 | 75 | 1015.1 |
| 20260902100838 | 77 | 157 | 0.0 | 0.0 | 0.00 | 0.00 | 0.00 | 75 | 1015.2 |
| 20260902095837 | 77 | 157 | 0.0 | 1.0 | 0.00 | 0.00 | 0.00 | 75 | 1015.2 |
| 20260902093937 | 78 | 157 | 0.0 | 0.0 | 0.00 | 0.00 | 0.00 | 73 | 1015.1 |
| 20260902093034 | 78 | 157 | 0.0 | 0.0 | 0.00 | 0.00 | 0.00 | 72 | 1015.0 |
| 20260902092036 | 79 | 157 | 0.0 | 0.0 | 0.00 | 0.00 | 0.00 | 72 | 1015.2 |
| 20260902091135 | 79 | 157 | 0.0 | 1.0 | 0.00 | 0.00 | 0.00 | 71 | 1015.3 |
| 20260902090152 | 79 | 157 | 0.0 | 1.0 | 0.00 | 0.00 | 0.00 | 71 | 1015.3 |
| 20260902085136 | 79 | 157 | 1.0 | 2.0 | 0.00 | 0.00 | 0.00 | 71 | 1015.3 |
| 20260902084136 | 79 | 157 | 1.0 | 3.0 | 0.00 | 0.00 | 0.00 | 70 | 1015.3 |
| 20260902082136 | 80 | 157 | 2.0 | 3.0 | 0.00 | 0.00 | 0.00 | 70 | 1015.3 |
| 20260902081136 | 80 | 157 | 2.0 | 4.0 | 0.00 | 0.00 | 0.00 | 69 | 1015.3 |
| 20260902080136 | 80 | 157 | 2.0 | 3.0 | 0.00 | 0.00 | 0.00 | 67 | 1015.3 |
| 20260902074235 | 81 | 157 | 2.0 | 2.0 | 0.00 | 0.00 | 0.00 | 67 | 1015.5 |
| 20260902073237 | 81 | 157 | 2.0 | 4.0 | 0.00 | 0.00 | 0.00 | 65 | 1015.4 |
| 20260902072237 | 82 | 157 | 4.0 | 5.0 | 0.00 | 0.00 | 0.00 | 65 | 1015.5 |
| 20260902071237 | 82 | 157 | 2.0 | 4.0 | 0.00 | 0.00 | 0.00 | 65 | 1015.5 |
| 20260902070236 | 83 | 151 | 4.0 | 6.0 | 0.00 | 0.00 | 0.00 | 64 | 1015.5 |
| 20260902065238 | 83 | 158 | 6.0 | 9.0 | 0.00 | 0.00 | 0.00 | 63 | 1015.5 |
| 20260902063237 | 83 | 160 | 7.0 | 10.0 | 0.00 | 0.00 | 0.00 | 62 | 1015.4 |
| 20260902062237 | 84 | 160 | 5.0 | 7.0 | 0.00 | 0.00 | 0.00 | 62 | 1015.4 |
| 20260902060238 | 84 | 160 | 8.0 | 11.0 | 0.00 | 0.00 | 0.00 | 61 | 1015.2 |
| 20260902055336 | 84 | 156 | 7.0 | 10.0 | 0.00 | 0.00 | 0.00 | 60 | 1015.1 |
| 20260902053436 | 85 | 154 | 7.0 | 8.0 | 0.00 | 0.00 | 0.00 | 59 | 1014.8 |
| 20260902052437 | 85 | 152 | 8.0 | 11.0 | 0.00 | 0.00 | 0.00 | 58 | 1014.8 |
| 20260902050534 | 86 | 145 | 7.0 | 12.0 | 0.00 | 0.00 | 0.00 | 57 | 1014.6 |
| 20260902045539 | 86 | 147 | 4.0 | 7.0 | 0.00 | 0.00 | 0.00 | 56 | 1014.8 |
| 20260902044623 | 86 | 131 | 4.0 | 7.0 | 0.00 | 0.00 | 0.00 | 56 | 1014.7 |
| 20260902042623 | 87 | 135 | 4.0 | 5.0 | 0.00 | 0.00 | 0.00 | 55 | 1014.6 |
| 20260902040621 | 87 | 157 | 3.0 | 5.0 | 0.00 | 0.00 | 0.00 | 53 | 1014.4 |
| 20260902040522 | 87 | 157 | 4.0 | 5.0 | 0.00 | 0.00 | 0.00 | 53 | 1014.5 |
| 20260902035523 | 88 | 158 | 4.0 | 6.0 | 0.00 | 0.00 | 0.00 | 53 | 1014.4 |
| 20260902034523 | 88 | 157 | 4.0 | 5.0 | 0.00 | 0.00 | 0.00 | 51 | 1014.5 |
| 20260902032624 | 89 | 153 | 6.0 | 8.0 | 0.00 | 0.00 | 0.00 | 49 | 1014.4 |
| 20260902030722 | 89 | 157 | 4.0 | 6.0 | 0.00 | 0.00 | 0.00 | 49 | 1014.1 |
| 20260902025724 | 89 | 146 | 4.0 | 5.0 | 0.00 | 0.00 | 0.00 | 47 | 1014.0 |
| 20260902024723 | 90 | 149 | 4.0 | 6.0 | 0.00 | 0.00 | 0.00 | 48 | 1013.8 |
| 20260902022722 | 90 | 134 | 3.0 | 5.0 | 0.00 | 0.00 | 0.00 | 47 | 1013.7 |
| 20260902021723 | 90 | 133 | 2.0 | 5.0 | 0.00 | 0.00 | 0.00 | 47 | 1013.5 |
| 20260902020822 | 91 | 138 | 3.0 | 5.0 | 0.00 | 0.00 | 0.00 | 45 | 1013.3 |
| 20260902015921 | 91 | 143 | 4.0 | 5.0 | 0.00 | 0.00 | 0.00 | 46 | 1013.3 |
| 20260902014921 | 91 | 147 | 3.0 | 5.0 | 0.00 | 0.00 | 0.00 | 45 | 1013.1 |
| 20260902013922 | 92 | 136 | 3.0 | 5.0 | 0.00 | 0.00 | 0.00 | 44 | 1013.0 |
| 20260902012923 | 92 | 130 | 4.0 | 7.0 | 0.00 | 0.00 | 0.00 | 44 | 1013.0 |
| 20260902010939 | 93 | 128 | 3.0 | 6.0 | 0.00 | 0.00 | 0.00 | 43 | 1012.9 |
| 20260902010022 | 94 | 128 | 3.0 | 7.0 | 0.00 | 0.00 | 0.00 | 42 | 1012.7 |
| 20260902005121 | 95 | 134 | 3.0 | 7.0 | 0.00 | 0.00 | 0.00 | 41 | 1012.8 |
| 20260902004124 | 96 | 130 | 4.0 | 8.0 | 0.00 | 0.00 | 0.00 | 40 | 1012.9 |
| 20260902003122 | 96 | 132 | 3.0 | 6.0 | 0.00 | 0.00 | 0.00 | 39 | 1012.7 |
| 20260902002121 | 97 | 156 | 7.0 | 9.0 | 0.00 | 0.00 | 0.00 | 39 | 1012.9 |
| 20260902001123 | 97 | 144 | 3.0 | 5.0 | 0.00 | 0.00 | 0.00 | 37 | 1012.8 |
| 20260902000124 | 97 | 87 | 1.0 | 3.0 | 0.00 | 0.00 | 0.00 | 38 | 1012.8 |
| 20260901235122 | 97 | 144 | 7.0 | 11.0 | 0.00 | 0.00 | 0.00 | 38 | 1013.0 |
| 20260901233140 | 98 | 127 | 4.0 | 7.0 | 0.00 | 0.00 | 0.00 | 37 | 1013.2 |
| 20260901232224 | 98 | 141 | 6.0 | 7.0 | 0.00 | 0.00 | 0.00 | 37 | 1013.1 |
| 20260901231321 | 97 | 155 | 7.0 | 8.0 | 0.00 | 0.00 | 0.00 | 37 | 1013.2 |
| 20260901225322 | 97 | 116 | 5.0 | 8.0 | 0.00 | 0.00 | 0.00 | 37 | 1013.1 |
| 20260901224421 | 97 | 87 | 8.0 | 10.0 | 0.00 | 0.00 | 0.00 | 38 | 1013.1 |
| 20260901222520 | 97 | 120 | 3.0 | 7.0 | 0.00 | 0.00 | 0.00 | 37 | 1013.2 |
| 20260901221523 | 97 | 93 | 7.0 | 9.0 | 0.00 | 0.00 | 0.00 | 36 | 1013.1 |
| 20260901220521 | 98 | 90 | 10.0 | 13.0 | 0.00 | 0.00 | 0.00 | 36 | 1013.1 |